AIC4586 VAAH-VOGO

Flight info

Callsign AIC4586
Flight time N/A
Altitude 38000
Route QQZ1A QQZ Z1 BBB/N0340F190 W126 EPKOS EPKOS2A
Aircraft A20N/M-SDE2E3FGHIRWXY/LB1

Departure

Time 2026-04-23 17:30
Airport Sardar Vallabh Patel International Airport (VAAH)

Arrival

Time N/A
Airport Goa Dabolim International Airport (VOGO)
Time Latitude Longitude Altitude Speed Heading
2026-04-23 16:13 23.07010 72.62027 168 ft 0 kts 45°
2026-04-23 17:13 23.07009 72.62026 195 ft 2 kts 45°
2026-04-23 17:13 23.06993 72.62009 212 ft 3 kts 44°
2026-04-23 17:13 23.06991 72.62006 212 ft 0 kts 43°
2026-04-23 17:16 23.06987 72.62002 206 ft 4 kts 43°
2026-04-23 17:16 23.06969 72.61984 210 ft 3 kts 43°
2026-04-23 17:16 23.06962 72.61977 209 ft 0 kts 43°
2026-04-23 17:18 23.06962 72.61980 209 ft 0 kts 66°
2026-04-23 17:19 23.06962 72.61982 209 ft 0 kts 84°
2026-04-23 17:19 23.06961 72.61983 209 ft 0 kts 96°
2026-04-23 17:19 23.06960 72.61983 209 ft 0 kts 108°
2026-04-23 17:19 23.06953 72.61997 202 ft 4 kts 122°
2026-04-23 17:20 23.06927 72.62029 205 ft 8 kts 134°
2026-04-23 17:20 23.06904 72.62138 200 ft 11 kts 95°
2026-04-23 17:21 23.06894 72.62312 204 ft 15 kts 46°
2026-04-23 17:21 23.06977 72.62403 201 ft 19 kts 45°
2026-04-23 17:21 23.07201 72.62643 192 ft 26 kts 44°
2026-04-23 17:22 23.07338 72.62787 196 ft 28 kts 44°
2026-04-23 17:22 23.07629 72.63094 199 ft 30 kts 44°
2026-04-23 17:23 23.07911 72.63406 196 ft 24 kts 61°
2026-04-23 17:23 23.08027 72.63557 204 ft 28 kts 45°
2026-04-23 17:23 23.08316 72.63867 197 ft 30 kts 45°
2026-04-23 17:24 23.08465 72.64028 199 ft 30 kts 45°
2026-04-23 17:24 23.08565 72.64136 200 ft 0 kts 45°
2026-04-23 17:24 23.08580 72.64152 198 ft 0 kts 45°
2026-04-23 17:28 23.08598 72.64180 198 ft 9 kts 64°
2026-04-23 17:28 23.08564 72.64265 195 ft 16 kts 138°
2026-04-23 17:28 23.08467 72.64241 205 ft 17 kts 220°
2026-04-23 17:29 23.08268 72.64034 200 ft 81 kts 223°
2026-04-23 17:29 23.07711 72.63446 196 ft 137 kts 224°
2026-04-23 17:29 23.06040 72.61659 611 ft 184 kts 225°
2026-04-23 17:30 23.05426 72.60996 882 ft 192 kts 225°
2026-04-23 17:30 23.02990 72.58549 2440 ft 209 kts 224°
2026-04-23 17:30 23.01853 72.57453 2950 ft 229 kts 225°
2026-04-23 17:31 23.00643 72.56216 3449 ft 250 kts 226°
2026-04-23 17:31 22.99359 72.54841 4044 ft 265 kts 227°
2026-04-23 17:31 22.98057 72.53410 4958 ft 267 kts 227°
2026-04-23 17:31 22.96757 72.51963 5935 ft 268 kts 227°
2026-04-23 17:32 22.95458 72.50510 6844 ft 270 kts 227°
2026-04-23 17:32 22.94122 72.49067 7735 ft 273 kts 221°
2026-04-23 17:32 22.92514 72.47965 8647 ft 277 kts 206°
2026-04-23 17:32 22.90652 72.47368 9561 ft 282 kts 194°
2026-04-23 17:33 22.88708 72.46939 10269 ft 292 kts 194°
2026-04-23 17:33 22.86632 72.46472 10527 ft 317 kts 194°
2026-04-23 17:33 22.84399 72.45946 10829 ft 337 kts 194°
2026-04-23 17:33 22.82086 72.45383 11485 ft 344 kts 195°
2026-04-23 17:34 22.79739 72.44799 12187 ft 349 kts 195°
2026-04-23 17:34 22.77351 72.44197 12885 ft 355 kts 194°
2026-04-23 17:34 22.72473 72.42961 14206 ft 364 kts 194°
2026-04-23 17:35 22.69993 72.42336 14879 ft 368 kts 194°
2026-04-23 17:35 22.65808 72.41286 15926 ft 375 kts 194°
2026-04-23 17:35 22.62386 72.40431 16739 ft 381 kts 193°
2026-04-23 17:36 22.59789 72.39783 17349 ft 385 kts 193°
2026-04-23 17:36 22.57182 72.39136 17966 ft 389 kts 193°
2026-04-23 17:36 22.54514 72.38475 18512 ft 392 kts 193°
2026-04-23 17:36 22.51845 72.37814 19075 ft 395 kts 193°
2026-04-23 17:37 22.49191 72.37159 19621 ft 398 kts 193°
2026-04-23 17:37 22.46478 72.36489 20161 ft 402 kts 193°
2026-04-23 17:37 22.40985 72.35134 21254 ft 409 kts 193°
2026-04-23 17:38 22.38200 72.34447 21799 ft 412 kts 193°
2026-04-23 17:38 22.35393 72.33755 22343 ft 416 kts 193°
2026-04-23 17:38 22.32562 72.33057 22885 ft 419 kts 193°
2026-04-23 17:38 22.29709 72.32354 23407 ft 423 kts 193°
2026-04-23 17:39 22.27802 72.31885 23721 ft 425 kts 193°
2026-04-23 17:39 22.24908 72.31173 24193 ft 428 kts 193°
2026-04-23 17:39 22.22000 72.30458 24667 ft 430 kts 193°
2026-04-23 17:39 22.19070 72.29739 25120 ft 433 kts 193°
2026-04-23 17:40 22.16122 72.29015 25584 ft 436 kts 193°
2026-04-23 17:40 22.13113 72.28277 26035 ft 439 kts 193°
2026-04-23 17:40 22.11134 72.27793 26331 ft 441 kts 193°
2026-04-23 17:40 22.10123 72.27545 26484 ft 442 kts 193°
2026-04-23 17:41 22.07114 72.26808 26926 ft 445 kts 193°
2026-04-23 17:41 22.04130 72.26077 27353 ft 448 kts 193°